[Date Prev][Date Next][Thread Prev][Thread Next] - [Date Index][Thread Index][Author Index]
2 Line ISS Keps 1-4
- Subject: [sarex] 2 Line ISS Keps 1-4
- From: "Dave Larsen PhD" <doc@xxxxxxxxxxx>
- Date: Thu, 3 Feb 2005 18:13:22 -0800
ISS
1 25544U 98067A 05035.01080010 .00069625 00000-0 55252-3 0 7373
2 25544 51.6437 221.9042 0009231 64.9188 73.6174 15.70570363354747
----
Via the sarex mailing list at AMSAT.ORG courtesy of AMSAT-NA.
To unsubscribe, send "unsubscribe sarex" to Majordomo@amsat.org
AMSAT Home